Flag for Poland Weather past 2 weeks in Rzeszów, Poland

Now
82 °F

Passing clouds.


Feels Like: 83 °F
Forecast: 63 / 90 °F
Wind: 6 mph from Northwest

Location: Rzeszow-Jasionka

Current Time: Aug 3, 2015 at 4:05:52 PM

Latest Report: Aug 3, 2015 at 3:30 PM


Visibility: N/A

Pressure: 30.12 "Hg

Humidity: 51%

Dew point: 63 °F

Location of RzeszówLocation

Historic Weather in Rzeszów — Graph

°F

Rzeszów temperature yesterday

Maximum temperature yesterday: 82 °F (at 3:30 PM)
Minimum temperature yesterday: 54 °F (at 4:00 AM)
Average temperature yesterday: 69 °F

Past Weeks' High & Low Weather Summary

 TemperatureHumidityPressure
High95 °F (Jul 23, 2:00 PM)100% (Jul 20, 5:30 AM)30.15 "Hg (Jul 20, 5:30 AM)
Low45 °F (Aug 1, 5:00 AM)28% (Jul 23, 2:30 PM)29.71 "Hg (Jul 25, 3:30 PM)
Average69 °F69%29.93 "Hg
* Reported Jul 19 3:00 PM — Aug 3 3:00 PM, Rzeszów, Weather by CustomWeather, © 2015

Note: Actual official high and low records may vary slightly from our data, if they occured in-between our weather recording intervals... More about our weather records

Advertising

Rzeszów weather history for previous 24 hours

 ConditionsComfort  
Time TempWeatherWind HumidityBarometerVisibility
3:00 PM
Mon, Aug 3
81 °FPassing clouds.7 mph54%30.12 "HgN/A
2:00 PM81 °FSunny.6 mph51%30.12 "Hg10 mi
1:30 PM81 °FSunny.5 mph48%30.12 "Hg10 mi
1:00 PM81 °FSunny.5 mph51%30.12 "Hg10 mi
12:30 PM82 °FSunny.2 mph48%30.12 "Hg10 mi
11:30 AM82 °FSunny.2 mph45%30.12 "Hg10 mi
11:00 AM81 °FSunny.3 mph48%30.12 "Hg10 mi
10:30 AM81 °FSunny.2 mph51%30.12 "Hg10 mi
10:00 AM77 °FPassing clouds.3 mph61%30.12 "HgN/A
9:30 AM75 °FPassing clouds.5 mph61%30.12 "HgN/A
9:00 AM72 °FPassing clouds.3 mph69%30.12 "HgN/A
8:30 AM70 °FSunny.2 mph73%30.12 "Hg10 mi
8:00 AM68 °FSunny.2 mph73%30.12 "Hg10 mi
7:30 AM66 °FPassing clouds.5 mph78%30.12 "HgN/A
7:00 AM63 °FSunny.3 mph88%30.12 "Hg10 mi
6:30 AM63 °FSunny.3 mph88%30.12 "Hg10 mi
6:00 AM61 °FClear.5 mph94%30.12 "Hg10 mi
5:30 AM59 °FClear.3 mph100%30.12 "Hg10 mi
5:00 AM59 °FClear.1 mph100%30.12 "Hg10 mi
4:30 AM61 °FClear.5 mph94%30.12 "Hg10 mi
4:00 AM61 °FClear.3 mph94%30.12 "Hg10 mi
3:30 AM61 °FClear.1 mph100%30.12 "Hg10 mi
3:00 AM61 °FClear.5 mph94%30.12 "Hg10 mi
2:30 AM63 °FClear.2 mph94%30.12 "Hg10 mi
2:00 AM63 °FClear.3 mph94%30.12 "Hg10 mi
1:30 AM64 °FClear.No wind88%30.12 "Hg10 mi
1:00 AM64 °FClear.2 mph88%30.12 "Hg10 mi
12:30 AM64 °FClear.3 mph88%30.15 "Hg10 mi
12:00 AM66 °FClear.6 mph88%30.15 "Hg10 mi
11:30 PM
Sun, Aug 2
66 °FClear.6 mph88%30.12 "Hg10 mi
11:00 PM68 °FClear.1 mph83%30.12 "Hg10 mi
10:30 PM68 °FClear.No wind78%30.12 "Hg10 mi
10:00 PM70 °FClear.No wind78%30.12 "Hg10 mi
9:30 PM70 °FClear.2 mph78%30.12 "Hg10 mi
9:00 PM73 °FSunny.2 mph65%30.12 "Hg10 mi
8:30 PM73 °FSunny.3 mph65%30.12 "Hg10 mi
8:00 PM75 °FSunny.3 mph61%30.12 "Hg10 mi
7:30 PM77 °FSunny.3 mph54%30.12 "Hg10 mi
7:00 PM79 °FSunny.5 mph45%30.12 "Hg10 mi
6:30 PM81 °FSunny.2 mph39%30.12 "Hg10 mi
6:00 PM81 °FSunny.5 mph37%30.12 "Hg10 mi
5:30 PM81 °FSunny.2 mph39%30.12 "Hg10 mi
5:00 PM81 °FSunny.5 mph37%30.12 "Hg10 mi
4:30 PM82 °FPassing clouds.7 mph35%30.12 "HgN/A
4:00 PM82 °FPassing clouds.6 mph40%30.12 "HgN/A
Weather by CustomWeather, © 2015

See weather overviewHow to use our weather pages